Home   Weather   Kitakyushu   Past weeks

Flag for Japan Past Weather in Kitakyushu, Japan — Yesterday and Last 2 Weeks

Now
84 °F

Broken clouds.


Feels Like: 92 °F
Forecast: 80 / 86 °F
Wind: 12 mph from North

Location: Kitakyushu Airport

Current Time: Aug 21, 2017 at 12:02:09 pm

Latest Report: Aug 21, 2017 at 11:00 am


Visibility: N/A

Pressure: 29.86 "Hg

Humidity: 74%

Dew Point: 75 °F

Location of KitakyushuLocation

Past Weather in Kitakyushu — Graph

°F

Kitakyushu Temperature Yesterday

Maximum temperature yesterday: 86 °F (at 2:00 pm)
Minimum temperature yesterday: 79 °F (at 1:00 am)
Average temperature yesterday: 82 °F

High & Low Weather Summary for the Past Weeks

 TemperatureHumidityPressure
High93 °F (Aug 8, 1:00 pm)94% (Aug 14, 11:44 pm)29.89 "Hg (Aug 14, 11:44 pm)
Low77 °F (Aug 13, 1:00 am)44% (Aug 8, 3:00 pm)29.30 "Hg (Aug 7, 3:00 am)
Average83 °F74%29.65 "Hg
* Reported Aug 6 10:00 am — Aug 21 10:00 am, Kitakyushu. Weather by CustomWeather, © 2017

Note: Actual official high and low records may vary slightly from our data, if they occured in-between our weather recording intervals... More about our weather records

Advertising

Kitakyushu Weather History for the Previous 24 Hours

Scroll right to see more
 ConditionsComfort  
Time TempWeatherWind HumidityBarometerVisibility
10:00 am
Mon, Aug 21
84 °FBroken clouds.10 mph74%29.86 "HgN/A
9:00 am84 °FPassing clouds.8 mph74%29.83 "HgN/A
8:00 am82 °FScattered clouds.8 mph79%29.83 "HgN/A
7:00 am82 °FBroken clouds.9 mph79%29.86 "HgN/A
6:00 am82 °FPartly sunny.6 mph79%29.83 "HgN/A
5:00 am82 °FPassing clouds.9 mph79%29.83 "HgN/A
4:00 am82 °FPassing clouds.10 mph79%29.83 "HgN/A
3:00 am82 °FPartly cloudy.2 mph79%29.80 "HgN/A
2:00 am82 °FPartly cloudy.3 mph84%29.80 "HgN/A
1:00 am82 °FPartly cloudy.12 mph84%29.80 "HgN/A
12:00 am82 °FPassing clouds.14 mph84%29.80 "HgN/A
11:00 pm
Sun, Aug 20
82 °FPassing clouds.16 mph84%29.83 "HgN/A
10:00 pm82 °FPassing clouds.15 mph79%29.83 "HgN/A
9:00 pm82 °FPassing clouds.14 mph84%29.83 "HgN/A
8:00 pm82 °FPassing clouds.14 mph84%29.80 "HgN/A
7:00 pm84 °FPassing clouds.12 mph79%29.80 "HgN/A
6:00 pm84 °FPassing clouds.8 mph79%29.80 "HgN/A
5:00 pm84 °FPassing clouds.7 mph74%29.80 "HgN/A
4:00 pm86 °FPassing clouds.6 mph70%29.80 "HgN/A
3:00 pm84 °FScattered clouds.8 mph70%29.80 "HgN/A
2:00 pm86 °FScattered clouds.10 mph70%29.83 "HgN/A
1:00 pm84 °FScattered clouds.7 mph70%29.83 "HgN/A
12:00 pm84 °FPartly sunny.9 mph74%29.83 "HgN/A
Weather by CustomWeather, © 2017

See weather overviewHow to use our weather pages